This is the latest recevied weather packets stored in our database for station/object IK5YZV-10. If no packets are shown the sender has not sent any weather packets the latest 10 day(s).
| Time | Temp. | Humidity | Pressure | Rain* | Wind** | Luminosity | Snow |
|---|---|---|---|---|---|---|---|
| 1777719094 | 20.56° C | 51% | 1024.7 hPa | - | - | - | - |
| 1777718193 | 20.56° C | 51% | 1025 hPa | - | - | - | - |
| 1777717292 | 20.56° C | 51% | 1025.2 hPa | - | - | - | - |
| 1777716391 | 20.56° C | 51% | 1025.2 hPa | - | - | - | - |
| 1777715490 | 20.56° C | 50% | 1025.3 hPa | - | - | - | - |
| 1777714590 | 20.56° C | 50% | 1025.4 hPa | - | - | - | - |
| 1777713689 | 20.56° C | 50% | 1025.3 hPa | - | - | - | - |
| 1777712788 | 20.56° C | 49% | 1025.4 hPa | - | - | - | - |
| 1777711887 | 20.56° C | 49% | 1025.4 hPa | - | - | - | - |
| 1777710986 | 20.56° C | 48% | 1025.5 hPa | - | - | - | - |
| 1777710085 | 20.56° C | 44% | 1025.5 hPa | - | - | - | - |
| 1777709185 | 20.56° C | 45% | 1025.6 hPa | - | - | - | - |
| 1777708284 | 20.56° C | 53% | 1025.8 hPa | - | - | - | - |
| 1777707383 | 20.56° C | 52% | 1025.6 hPa | - | - | - | - |
| 1777706482 | 20.56° C | 51% | 1025.8 hPa | - | - | - | - |
| 1777705581 | 20.56° C | 51% | 1025.8 hPa | - | - | - | - |
| 1777704681 | 20.56° C | 50% | 1025.8 hPa | - | - | - | - |
| 1777703780 | 20.56° C | 49% | 1025.8 hPa | - | - | - | - |
| 1777702879 | 20.56° C | 48% | 1025.8 hPa | - | - | - | - |
| 1777701978 | 20.56° C | 47% | 1025.8 hPa | - | - | - | - |
| 1777701077 | 20.56° C | 47% | 1025.7 hPa | - | - | - | - |
| 1777700176 | 20.56° C | 49% | 1025.6 hPa | - | - | - | - |
| 1777699275 | 20.56° C | 46% | 1025.6 hPa | - | - | - | - |
| 1777698374 | 20.56° C | 45% | 1025.6 hPa | - | - | - | - |
| 1777697473 | 20.56° C | 43% | 1025.5 hPa | - | - | - | - |
* Rain since midnight (hover to see other rain measurements)
** Current wind speed in m/s (hover to see current wind gust speed)